Theta_e
321 322 322 323 322 321 325 327 329 329 329 348 342 345 346 347 347 344 347 338 338 332 341 342 339 336 332 330 330 332 332 332 331 330 327 324 324 327 327 326 324 322 322 321 320 320 322 324 327
321 321 322 324 321 323 323 323 327 328 335 349 349 348 348 348 350 350 347 340 340 334 339 340 339 335 332 330 333 331 331 330 327 325 322 322 324 325 325 323 322 322 323 322 322 322 324 327 327
319 320 321 319 317 322 324 324 326 325 326 329 346 348 349 350 351 348 347 349 336 335 338 339 339 335 334 335 337 334 330 325 324 323 322 323 324 323 322 322 323 323 322 323 324 324 325 326 326
319 320 321 320 321 320 325 323 323 323 327 341 347 347 348 348 350 350 351 346 334 334 338 339 338 336 336 337 339 336 332 325 323 323 323 323 322 322 323 323 323 322 322 323 323 324 325 325 325
318 318 318 318 319 320 325 324 324 323 327 343 347 347 346 347 347 350 347 341 334 333 336 338 338 337 338 339 340 339 336 331 323 323 324 324 324 324 324 323 323 323 323 323 323 323 323 322 323
317 318 317 319 320 323 325 325 324 326 343 345 345 345 346 348 347 347 347 341 333 329 333 337 338 337 339 339 341 341 339 336 330 323 323 324 325 325 324 324 323 323 322 322 322 321 321 321 321
314 316 318 319 321 322 326 323 326 324 333 337 345 343 348 350 347 348 347 343 334 328 329 334 337 339 339 339 340 341 341 340 337 330 324 322 322 323 323 323 323 323 322 322 321 321 321 321 320
317 314 318 319 321 322 324 323 323 322 326 340 345 336 342 347 348 348 347 345 337 330 327 328 333 334 336 338 339 341 341 342 342 339 333 326 323 321 322 323 323 323 323 322 321 321 321 320 320
316 314 316 318 321 321 323 320 323 323 324 328 330 345 345 347 350 349 348 347 345 336 335 331 330 332 333 334 336 338 340 341 342 343 341 339 331 325 322 322 322 322 323 324 322 321 321 320 320
312 316 320 319 320 319 321 321 322 321 323 323 330 329 338 346 347 348 349 349 348 346 344 342 338 333 333 335 335 336 338 339 340 342 343 342 339 335 328 324 322 322 322 323 323 322 321 321 321
312 320 321 321 321 322 323 323 324 322 321 323 322 326 326 343 347 348 347 348 348 348 348 347 345 343 333 333 334 334 334 335 336 337 341 342 343 341 341 338 330 324 322 322 322 322 321 321 321
312 313 318 323 326 324 319 321 327 330 326 324 323 324 323 325 326 330 334 341 348 349 349 348 347 346 340 332 332 333 333 332 332 332 334 338 341 343 342 342 341 338 329 323 321 322 322 321 320
311 313 315 316 320 320 324 324 328 326 327 321 320 320 321 322 323 321 325 325 334 341 347 349 347 347 346 335 331 331 333 333 333 331 331 331 334 337 339 339 341 340 340 334 327 322 321 322 320
312 313 314 316 316 317 321 318 319 326 326 324 320 320 319 320 321 322 320 320 321 322 324 325 329 341 348 346 336 332 333 334 334 334 333 332 332 331 332 335 337 339 339 338 337 332 325 321 321
313 312 313 313 314 315 317 316 317 321 322 320 320 320 319 319 320 320 320 320 322 324 324 324 326 329 340 348 342 336 334 334 334 335 337 339 343 345 340 335 333 331 333 336 335 334 335 329 324
310 310 310 312 313 314 316 316 317 318 318 318 320 320 320 319 319 320 320 320 320 321 323 327 329 332 340 348 343 344 344 342 343 344 344 344 345 346 346 342 339 339 338 334 332 332 332 334 332
310 311 311 312 313 315 315 315 316 319 318 319 319 319 319 319 318 319 319 320 321 323 322 323 326 334 348 349 348 348 348 347 347 347 345 345 346 347 347 346 345 344 343 341 339 335 331 334 336
312 314 313 314 315 314 314 314 315 317 317 317 318 318 318 319 319 319 320 320 321 322 322 321 322 325 331 341 347 348 347 347 348 347 347 347 347 347 344 346 346 346 345 344 342 341 339 337 331
314 314 315 316 316 317 315 314 315 316 315 315 317 318 318 318 319 319 319 319 320 322 322 322 321 322 322 327 338 339 335 327 323 333 343 343 341 340 341 343 342 344 346 346 344 342 341 340 339
315 315 315 315 315 314 314 315 314 314 313 316 317 318 319 319 319 319 319 319 320 320 321 321 322 321 322 322 321 321 321 320 320 320 321 321 322 324 326 331 336 342 345 345 346 346 343 341 340
315 316 315 316 316 315 316 315 315 315 316 316 317 319 319 319 319 319 319 319 320 321 322 322 322 322 321 321 321 320 320 320 319 319 319 319 319 320 322 324 325 326 327 335 340 343 342 343 342
315 315 316 316 315 315 314 314 313 314 315 317 318 319 319 319 319 319 319 320 320 322 323 322 321 321 320 320 320 320 319 318 317 317 316 317 318 318 318 319 321 322 323 323 323 324 332 338 342
315 316 315 316 315 313 314 313 313 315 317 316 314 319 321 321 322 321 319 320 321 322 322 321 320 320 320 319 319 319 317 316 316 316 316 317 318 319 319 318 318 319 320 323 327 329 329 326 331
315 314 311 310 310 313 313 313 313 315 316 315 317 319 321 322 323 320 319 321 321 320 320 319 319 319 319 318 318 317 316 315 316 316 315 317 319 320 319 320 319 317 316 316 321 330 329 330 331
312 311 312 313 313 314 313 314 313 316 320 318 318 317 319 320 319 319 320 320 319 319 319 319 319 318 318 318 316 316 315 315 315 315 315 316 320 321 321 320 317 317 316 319 322 325 331 331 333
318 312 312 315 314 314 317 318 319 320 318 316 317 317 319 320 320 320 320 320 320 319 319 318 318 318 317 316 316 316 315 315 316 316 316 319 321 321 321 317 314 317 317 316 321 325 327 328 329
320 319 315 315 316 317 316 318 317 319 317 317 317 317 317 317 318 319 319 319 319 318 318 318 317 317 316 316 316 315 316 317 316 317 319 321 320 320 317 315 314 313 311 314 316 318 320 321 323
320 319 320 314 321 321 318 320 317 321 319 319 317 318 319 317 316 316 316 316 316 316 316 315 315 316 316 316 316 316 316 317 317 318 318 317 317 317 317 316 315 314 313 310 313 315 316 317 320
318 317 317 316 315 317 319 318 317 321 319 317 313 315 316 317 317 317 317 317 317 316 316 316 315 316 316 316 317 318 320 320 322 322 319 318 318 317 316 316 316 315 313 312 311 313 315 316 318
316 319 318 317 321 313 311 315 317 315 313 313 312 314 314 314 314 314 314 314 315 315 316 315 315 316 315 315 315 315 316 317 319 320 320 321 321 319 317 317 316 315 314 312 311 311 313 314 315
Wind_Speed
9 7 10 5 2 4 4 5 3 6 9 6 2 5 4 5 2 3 18 26 21 30 31 29 27 23 23 24 23 22 21 19 18 16 15 16 18 18 19 18 17 15 14 12 11 11 11 11 9
8 7 4 1 4 0 5 5 6 6 6 9 8 5 5 3 2 11 24 25 25 29 30 29 27 25 23 23 22 21 20 18 18 17 18 19 20 21 20 18 16 14 13 11 11 11 11 10 9
9 6 3 4 3 5 4 5 7 6 11 22 2 3 3 2 11 20 20 19 32 29 29 28 26 25 23 22 21 20 18 18 19 19 20 21 21 21 19 18 16 14 12 11 11 10 10 9 9
7 2 2 3 7 6 3 7 12 14 22 1 9 4 5 2 10 11 17 21 30 28 28 27 25 25 24 22 20 19 17 17 18 19 20 21 21 20 19 18 16 14 13 11 11 10 10 10 10
8 3 1 1 5 5 3 10 17 10 5 9 6 3 4 8 7 17 15 20 25 27 27 26 25 25 24 22 20 18 17 16 17 18 19 19 19 19 18 17 15 14 13 12 11 10 10 11 10
4 3 2 4 5 4 4 17 12 7 9 12 12 7 2 14 16 15 12 16 23 23 25 25 25 25 24 22 21 19 18 16 15 16 17 18 18 17 17 15 14 13 12 11 11 10 10 10 10
7 3 5 4 3 4 4 10 5 6 3 4 13 4 8 21 16 18 15 16 18 19 20 24 26 25 24 23 22 21 20 18 17 15 15 16 16 16 16 15 14 13 12 12 11 11 10 10 10
9 4 3 5 5 7 5 4 14 14 4 12 24 6 7 21 19 19 19 19 19 19 20 21 23 24 26 25 24 23 22 20 19 18 16 16 16 16 16 16 15 14 13 12 12 12 11 11 11
12 4 5 6 6 6 11 6 13 15 13 4 5 21 20 22 23 22 22 22 20 21 21 22 23 24 25 26 26 25 24 23 21 21 20 19 19 19 18 17 16 15 14 14 13 13 13 12 12
6 6 12 5 0 5 12 5 11 10 13 11 7 11 20 22 23 24 24 25 26 23 23 22 21 23 27 27 27 27 26 26 26 25 24 24 22 20 19 18 18 18 17 17 16 16 15 15 14
4 12 13 4 12 9 14 23 9 8 2 6 8 5 12 21 29 26 23 25 22 23 23 18 16 19 25 27 28 28 28 28 27 27 27 26 25 24 24 22 21 21 21 21 20 20 20 19 18
5 6 9 19 29 20 6 20 19 18 17 10 9 9 7 7 16 18 19 22 26 25 22 22 22 23 22 28 28 28 28 28 28 27 28 28 28 28 27 25 24 24 23 24 24 24 23 23 23
5 2 17 19 19 21 25 29 21 24 25 11 7 7 16 13 11 9 10 10 14 19 21 22 22 25 24 27 28 29 29 28 26 25 25 26 28 29 29 30 29 29 27 27 28 29 28 29 28
6 13 10 18 22 31 27 20 9 40 38 33 19 11 7 12 15 15 10 10 13 13 15 17 20 25 27 28 29 28 27 26 25 23 22 22 24 27 29 31 32 33 32 31 31 31 33 32 32
24 4 7 17 20 13 21 13 17 40 34 34 34 20 14 13 14 16 16 9 7 11 14 15 17 19 27 31 31 26 26 24 23 23 22 21 21 22 25 30 32 33 34 35 34 36 35 35 35
8 4 5 9 13 19 17 20 18 35 35 34 29 28 23 18 19 19 16 16 15 13 8 12 15 20 25 26 27 24 22 20 20 23 24 24 25 25 27 29 30 31 31 33 36 36 37 38 38
3 5 5 8 12 10 17 8 12 27 28 28 29 27 25 25 20 22 21 19 15 13 12 10 11 12 15 21 23 22 19 18 17 18 21 22 24 25 27 30 32 33 34 33 32 34 37 40 40
5 3 4 6 4 5 4 7 10 21 19 26 31 27 26 25 25 23 21 17 16 16 15 14 14 15 15 16 18 19 19 19 22 25 27 25 26 27 30 31 32 30 37 39 38 38 39 38 40
3 3 5 4 6 1 6 5 15 17 17 18 23 25 28 30 26 26 21 20 21 20 19 18 18 19 19 19 18 16 16 16 14 14 18 21 23 27 28 31 32 32 34 37 39 43 43 44 43
5 3 6 6 5 5 4 6 7 3 7 23 28 24 24 23 25 25 24 22 24 25 24 23 21 21 23 21 20 18 17 17 17 15 15 17 20 22 23 26 29 31 32 36 37 40 46 48 45
5 4 6 7 3 1 2 5 4 4 4 7 16 20 25 27 27 28 26 26 25 26 28 27 24 20 18 17 16 14 13 14 16 19 21 21 23 24 25 24 24 24 25 30 36 38 40 44 46
6 7 11 9 4 3 2 4 4 5 6 3 6 14 18 20 26 31 30 30 30 31 30 25 21 17 14 11 10 11 12 15 18 18 20 21 23 25 26 28 29 28 28 28 30 31 33 37 44
9 9 13 7 3 5 2 4 6 2 3 5 7 14 14 19 21 26 35 35 33 33 30 24 18 14 11 8 9 11 13 14 16 19 22 22 21 22 22 22 26 28 29 30 29 29 30 32 35
6 4 7 4 4 1 4 5 5 2 2 5 5 11 10 14 18 11 28 33 29 26 21 16 13 10 10 10 12 16 15 16 18 20 23 22 22 25 26 29 30 32 30 31 28 28 30 31 34
7 6 2 3 2 5 3 3 7 2 2 6 3 7 3 4 4 11 31 25 20 16 12 10 12 13 14 15 20 20 18 20 22 22 21 24 26 26 27 30 31 32 29 26 27 29 28 27 30
2 5 5 7 4 4 4 4 3 2 9 13 11 11 15 18 19 19 18 13 11 12 14 16 18 17 19 21 22 22 23 25 24 22 22 24 26 28 29 30 30 27 27 27 25 26 29 30 30
1 3 3 6 3 3 3 5 2 4 8 12 14 12 7 9 10 13 14 14 15 16 17 19 22 23 24 26 26 26 27 25 26 24 24 25 28 29 29 28 29 29 28 27 28 26 27 28 31
3 3 2 3 5 4 3 3 4 2 5 3 6 8 7 7 5 4 2 8 13 18 22 24 23 26 26 24 24 24 26 27 27 27 27 29 30 30 29 30 29 29 33 31 31 30 30 30 29
4 2 4 4 4 4 3 5 4 5 5 7 8 10 10 11 7 4 2 1 1 4 8 11 15 18 21 22 23 24 25 25 26 27 28 29 29 29 32 32 30 32 33 33 34 34 33 32 29
3 2 4 4 4 2 3 5 4 6 6 13 13 13 17 16 13 11 9 7 7 9 10 11 10 10 11 12 14 14 17 21 25 27 27 29 29 29 31 31 33 34 33 32 32 33 34 35 36
Wind_Direction
295 306 319 317 47 67 271 257 257 287 329 359 93 135 155 61 238 212 149 162 167 164 165 164 161 164 166 165 165 167 167 169 170 171 171 168 164 161 159 157 155 154 152 148 145 143 141 139 138
287 306 309 124 108 239 265 240 251 234 327 60 69 52 51 22 359 140 155 161 174 166 165 166 163 163 167 165 165 166 167 171 171 168 164 163 163 162 162 160 160 159 156 154 151 149 150 149 149
307 305 249 128 162 197 228 228 261 311 293 280 246 42 58 106 116 144 159 164 168 170 166 168 167 164 169 169 169 169 169 169 168 164 162 162 163 163 163 164 164 163 163 161 159 159 159 160 164
279 264 187 121 232 254 233 315 302 306 320 159 152 87 87 178 138 158 155 161 169 171 168 170 171 168 171 173 172 172 170 168 168 166 164 164 165 166 168 170 171 170 169 169 169 169 170 172 174
246 235 192 213 259 265 325 271 299 286 256 163 141 127 93 162 166 142 143 162 174 172 170 174 176 174 175 177 177 179 177 174 173 173 173 172 173 176 177 179 178 178 178 180 181 181 182 182 182
213 204 106 234 250 264 283 288 306 331 132 143 130 111 73 144 152 138 129 160 176 175 174 178 181 180 182 183 183 185 186 185 183 183 183 183 185 186 188 188 189 189 191 192 193 194 194 195 192
168 165 193 194 258 273 220 323 347 326 276 152 128 93 149 157 160 148 134 141 166 179 182 185 187 185 187 190 191 193 193 195 194 193 194 195 198 199 201 201 201 201 203 206 207 207 207 205 204
201 139 163 209 209 256 199 20 352 359 342 150 138 157 180 171 173 163 160 158 164 177 186 194 195 195 194 195 198 200 201 202 203 204 203 204 206 209 212 216 217 216 215 217 218 220 220 218 217
211 114 199 201 179 266 237 52 341 350 6 306 278 165 163 167 179 177 173 172 177 184 187 195 200 203 204 203 203 205 207 209 211 212 214 214 214 215 216 218 221 225 229 231 231 232 232 232 231
198 188 221 195 299 305 315 10 344 337 10 29 74 135 150 175 185 192 189 188 186 191 193 193 201 209 208 209 209 210 211 213 215 218 220 222 223 225 226 227 226 227 230 234 237 239 240 241 239
221 211 219 193 278 259 312 301 314 316 120 321 7 311 162 177 188 199 204 207 208 202 201 203 207 213 215 215 215 216 217 219 221 223 226 228 230 231 232 232 233 233 234 234 236 237 239 242 244
180 207 164 223 249 267 265 291 292 283 285 237 224 230 264 225 176 204 214 216 211 214 217 213 216 216 219 222 221 223 225 226 227 230 231 234 237 240 241 244 244 243 243 245 246 244 245 246 246
195 164 198 230 237 275 291 275 264 277 274 261 218 194 201 224 212 176 176 198 216 229 230 230 237 233 226 226 227 229 231 234 236 238 240 242 245 247 251 254 254 257 254 251 252 254 251 251 251
209 212 209 239 232 237 243 255 271 273 278 278 263 250 201 211 222 231 199 202 197 211 216 229 236 240 236 230 231 231 237 241 244 247 251 256 261 260 259 258 259 259 260 261 263 261 261 259 260
229 167 225 231 230 236 234 257 233 245 259 268 269 268 251 235 224 230 243 248 217 201 214 228 235 240 238 229 231 231 238 244 247 248 248 250 263 274 273 268 268 269 268 266 265 266 266 264 265
159 154 224 235 218 233 188 241 241 244 239 235 243 257 266 257 235 227 222 236 242 243 225 195 215 231 235 229 230 233 236 242 249 253 259 262 263 268 272 272 273 276 276 274 269 268 266 266 266
355 177 183 270 201 204 185 210 226 233 224 229 238 245 251 254 247 228 227 230 230 214 224 206 189 206 220 225 233 241 246 249 261 270 268 272 270 273 273 274 275 277 277 276 276 273 269 269 268
214 197 206 212 235 200 154 246 252 250 239 234 240 247 249 249 245 223 215 215 211 197 187 189 185 191 206 216 229 241 249 252 259 271 277 280 284 282 284 286 285 278 272 275 275 275 273 273 272
237 225 233 238 240 261 249 268 266 267 227 222 238 242 246 253 247 220 214 217 208 198 201 200 199 196 202 207 212 221 235 247 252 251 258 266 273 278 278 280 284 286 286 279 273 274 277 275 273
223 248 276 283 266 160 242 239 260 277 227 217 227 237 246 239 230 227 228 223 216 219 218 219 218 210 200 203 207 217 227 239 254 263 265 271 279 282 281 280 280 281 283 283 284 282 274 273 273
232 197 254 218 329 210 220 307 326 311 273 216 232 230 238 236 234 234 229 221 218 219 214 210 209 204 197 206 217 232 252 268 280 288 293 294 289 284 288 290 291 292 294 290 286 282 282 280 275
256 207 238 254 134 219 110 264 284 299 313 343 251 254 260 262 257 253 240 217 218 210 199 200 202 204 206 213 230 252 271 288 302 310 313 308 301 293 292 289 292 297 296 292 289 292 291 286 280
229 217 207 210 180 123 334 87 270 315 293 287 297 301 275 279 285 262 238 222 205 196 198 200 203 213 229 249 270 283 293 305 311 314 312 310 300 298 300 311 310 303 299 299 297 289 290 289 288
274 107 53 48 96 206 219 138 287 241 275 293 281 276 291 290 291 279 219 188 179 180 185 196 214 230 251 267 283 289 289 299 298 301 307 301 295 301 302 309 310 311 304 295 291 298 287 286 282
50 60 0 323 352 214 281 102 228 281 327 248 285 323 335 322 282 188 168 167 168 172 185 214 237 251 265 277 289 282 285 293 299 304 299 289 288 290 293 299 309 309 311 306 295 288 292 286 287
17 134 151 204 200 230 315 226 208 10 43 68 85 98 105 110 119 130 146 168 199 224 235 242 251 258 266 280 283 277 275 284 288 292 287 281 281 286 294 302 308 312 310 311 304 294 290 292 282
217 58 175 105 14 71 258 292 3 36 39 45 58 65 72 113 145 166 187 208 220 225 236 244 257 273 278 280 270 264 270 272 285 284 272 271 278 285 292 298 306 311 314 312 305 308 301 291 287
124 150 71 16 144 202 286 265 216 69 63 43 22 14 34 43 37 13 292 258 256 256 257 262 269 260 260 256 257 258 263 276 278 274 272 278 282 286 289 293 298 303 307 318 315 306 304 308 293
21 46 71 109 133 164 169 255 215 137 20 355 22 37 62 75 66 56 67 49 292 278 278 277 272 267 263 262 262 261 258 257 254 254 264 277 283 283 286 287 292 296 300 305 312 313 306 306 304
90 120 119 138 202 163 160 261 69 48 34 84 54 76 75 76 68 63 55 37 18 5 355 345 335 322 308 294 289 289 281 272 268 265 262 259 263 272 278 281 288 290 293 299 302 307 304 303 295